Location: Finney State Fishing Lake and Wildlife Area
(38.1834°N, 100.3310°W)
Time: 12:44:52
(UTC+00:00)

Cosmos 1674 - Pass Details

Date: 17 October 2021
Orbit: 493 x 514 km, 82.5° (Epoch: 29 November)

Event Time Altitude Azimuth Distance (km) Brightness Sun altitude
Rises 12:20:22 0° 207° (SSW) 2,558 6.0 -7.0°
Reaches altitude 10° 12:22:37 10° 218° (SW) 1,683 5.0 -6.6°
Maximum altitude 12:25:56 31° 282° (WNW) 886 3.4 -6.0°
Drops below altitude 10° 12:29:17 10° 346° (NNW) 1,701 5.1 -5.3°
Sets 12:31:35 0° 357° (N) 2,592 6.1 -4.9°
